(69636) = 1998 FE71 = 2000 YA20

Discovered at Socorro on 1998-03-20 by LINEAR.

Orbit

Orbit type: Main Belt

Note: WebGL enabled browser required.

epoch2023-09-13.0
epoch JD2460200.5
perihelion date2022-05-10.83616
perihelion JD2459710.33616
argument of perihelion (°)169.80108
ascending node (°)348.16393
inclination (°)3.42998
eccentricity0.1026362
perihelion distance (AU)2.0628586
Tisserand w.r.t. Jupiter3.6
ΔV w.r.t. Earth (km/sec)9.0
semimajor axis (AU)2.2987986
mean anomaly (°)138.60973
mean daily motion (°/day)0.28278250
aphelion distance (AU)2.535
period (years)3.49
P-vector [x]-0.92701997
P-vector [y]0.33971553
P-vector [z]0.15883115
Q-vector [x]-0.37481112
Q-vector [y]-0.82545886
Q-vector [z]-0.42205958
absolute magnitude15.91
phase slope0.15
uncertainty0
referenceMPEC 2024-A34
observations used1513
oppositions18
arc length (days)9249
first opposition used1998
last opposition used2023
residual rms (arc-secs)0.69
perturbers coarse indicatorM-v
perturbers precise indicator003Ek
first observation date used1998-03-20.0
last observation date used2023-07-15.0
computer nameMPCLINUX
JD of orbit computation2456966.836584
perihelion JD uncertainty (days)7.8507E-05
argument of perihelion uncertainty (°)6.2230E-05
ascending node uncertainty (°)5.8680E-05
inclination uncertainty (°)4.3354E-06
eccentricity uncertainty 3.6684E-08
perihelion distance uncertainty (AU)8.2640E-08
Minimum Orbit Intersection Distances (in AU)
for orbit epoch: 2460200.5, reference: E2024-A34
Mercury1.68413
Venus1.34517
Earth1.07059
Mars0.3985
Jupiter2.44254
Saturn6.80777
Uranus16.3814
Neptune27.3686

Observations

1513 total observations over interval: 1998 03 20.23755 – 2023 07 15.973154
These data are available for download (format description).

Date (UT) J2000 RA J2000 Dec Magn Location Ref
1998 03 20.23755 13 23 01.65 -11 28 26.5 18.1   704 – Lincoln Laboratory ETS, New Mexico MPS 793
1998 03 20.25765 13 23 00.81 -11 28 26.3 18.1   704 – Lincoln Laboratory ETS, New Mexico MPS 793
1998 03 20.27786 13 22 59.81 -11 28 21.8 18.1   704 – Lincoln Laboratory ETS, New Mexico MPS 793
1998 03 20.29797 13 22 58.87 -11 28 21.4 18.1   704 – Lincoln Laboratory ETS, New Mexico MPS 793
1998 03 22.25273 13 21 26.82 -11 24 48.7 18.5   704 – Lincoln Laboratory ETS, New Mexico MPS 793
1998 03 22.27296 13 21 25.78 -11 24 44.0 19.1   704 – Lincoln Laboratory ETS, New Mexico MPS 793
1998 03 22.29312 13 21 24.86 -11 24 43.6 19.1   704 – Lincoln Laboratory ETS, New Mexico MPS 793
1998 03 22.33327 13 21 22.56 -11 24 38.8 19.2   704 – Lincoln Laboratory ETS, New Mexico MPS 793
1998 03 24.334688 13 19 42.79 -11 20 20.7 18.5 R 699 – Lowell Observatory-LONEOS MPS 793
1998 03 24.344618 13 19 42.26 -11 20 19.4 18.6 R 699 – Lowell Observatory-LONEOS MPS 793
1998 03 24.354536 13 19 41.72 -11 20 17.3 18.6 R 699 – Lowell Observatory-LONEOS MPS 793
1998 03 25.33295 13 18 50.89 -11 17 56.5 18.8   704 – Lincoln Laboratory ETS, New Mexico MPS 17450
1998 03 25.35302 13 18 49.75 -11 17 55.3 19.1   704 – Lincoln Laboratory ETS, New Mexico MPS 17450
1998 03 25.37328 13 18 48.52 -11 17 49.4 19.2   704 – Lincoln Laboratory ETS, New Mexico MPS 17450
1998 03 25.39355 13 18 47.51 -11 17 48.8 19.2   704 – Lincoln Laboratory ETS, New Mexico MPS 17450
1998 03 25.41369 13 18 46.37 -11 17 45.5 18.8   704 – Lincoln Laboratory ETS, New Mexico MPS 17450
1998 03 29.28968 13 15 14.84 -11 07 04.1 18.6   704 – Lincoln Laboratory ETS, New Mexico MPS 17450
1998 03 29.30997 13 15 13.70 -11 06 59.8 18.9   704 – Lincoln Laboratory ETS, New Mexico MPS 17450
1998 03 29.33017 13 15 12.46 -11 06 55.1 19.0   704 – Lincoln Laboratory ETS, New Mexico MPS 17450
1998 03 29.35054 13 15 11.29 -11 06 51.5 19.1   704 – Lincoln Laboratory ETS, New Mexico MPS 17450
1998 03 29.37077 13 15 10.07 -11 06 50.1 19.1   704 – Lincoln Laboratory ETS, New Mexico MPS 17450
1998 04 01.24452 13 12 24.82 -10 57 33.0 18.0   704 – Lincoln Laboratory ETS, New Mexico MPS 18968
1998 04 01.26457 13 12 23.71 -10 57 32.7 18.0   704 – Lincoln Laboratory ETS, New Mexico MPS 18968
1998 04 01.28472 13 12 22.44 -10 57 32.3 18.4   704 – Lincoln Laboratory ETS, New Mexico MPS 18968
1998 04 01.30482 13 12 21.38 -10 57 32.0 18.6   704 – Lincoln Laboratory ETS, New Mexico MPS 18968
1998 04 18.26290 12 55 44.49 -09 50 23.4 18.7   704 – Lincoln Laboratory ETS, New Mexico MPS 1266
1998 04 18.28377 12 55 43.28 -09 50 21.0 19.5   704 – Lincoln Laboratory ETS, New Mexico MPS 1266
1998 04 18.30454 12 55 42.06 -09 50 14.3 19.6   704 – Lincoln Laboratory ETS, New Mexico MPS 1266
1998 04 18.32524 12 55 40.85 -09 50 07.6 19.8   704 – Lincoln Laboratory ETS, New Mexico MPS 1266
1998 04 18.34594 12 55 39.43 -09 50 04.1 20.0   704 – Lincoln Laboratory ETS, New Mexico MPS 1266
1998 04 22.15721 12 52 19.43 -09 34 35.8 18.9   704 – Lincoln Laboratory ETS, New Mexico MPS 1266
1998 04 22.17603 12 52 18.52 -09 34 33.5 18.8   704 – Lincoln Laboratory ETS, New Mexico MPS 1266
1998 04 22.19480 12 52 17.61 -09 34 28.9 18.8   704 – Lincoln Laboratory ETS, New Mexico MPS 1266
1998 04 22.21371 12 52 16.51 -09 34 24.7 18.6   704 – Lincoln Laboratory ETS, New Mexico MPS 1266
1998 04 22.23247 12 52 15.48 -09 34 20.5 18.6   704 – Lincoln Laboratory ETS, New Mexico MPS 1266
1999 09 13.23937 22 16 38.73 -11 41 24.7 19.9   704 – Lincoln Laboratory ETS, New Mexico MPS 23533
1999 09 13.25083 22 16 38.07 -11 41 27.3 19.7   704 – Lincoln Laboratory ETS, New Mexico MPS 23533
1999 09 13.26292 22 16 37.53 -11 41 28.2 20.0   704 – Lincoln Laboratory ETS, New Mexico MPS 23533
2000 12 18.41689 07 37 30.79 +27 13 18.3 17.1 R 699 – Lowell Observatory-LONEOS MPS 24143
2000 12 18.43879 07 37 29.58 +27 13 19.6   699 – Lowell Observatory-LONEOS MPS 24143
2000 12 18.50834 07 37 26.03 +27 13 31.0   699 – Lowell Observatory-LONEOS MPS 24143
2000 12 18.53025 07 37 25.11 +27 13 33.2   699 – Lowell Observatory-LONEOS MPS 24143
2000 12 27.33671 07 29 09.60 +27 34 35.1 18.2   919 – Desert Beaver Observatory MPS 24143
2000 12 27.40030 07 29 05.52 +27 34 42.1 18.3   919 – Desert Beaver Observatory MPS 24143
2000 12 28.36900 07 28 03.54 +27 36 47.4 17.6   919 – Desert Beaver Observatory MPS 24143
2000 12 28.40504 07 28 01.25 +27 36 51.7 17.7   919 – Desert Beaver Observatory MPS 24143
2001 01 03.29687 07 21 21.56 +27 47 59.2 18.0   704 – Lincoln Laboratory ETS, New Mexico MPS 24143
2001 01 03.29742 07 21 21.58 +27 47 59.6 18.1   704 – Lincoln Laboratory ETS, New Mexico MPS 24143
2001 01 03.30234 07 21 21.20 +27 48 00.2 18.2   704 – Lincoln Laboratory ETS, New Mexico MPS 24143
2001 01 03.31305 07 21 20.43 +27 48 00.8 18.3   704 – Lincoln Laboratory ETS, New Mexico MPS 24143
2001 01 03.31361 07 21 20.35 +27 48 00.0 18.5   704 – Lincoln Laboratory ETS, New Mexico MPS 24143
2001 01 03.31708 07 21 20.11 +27 48 01.2 18.7   704 – Lincoln Laboratory ETS, New Mexico MPS 24143
2001 01 03.32828 07 21 19.28 +27 48 03.0 18.3   704 – Lincoln Laboratory ETS, New Mexico MPS 24143
2001 01 03.32884 07 21 19.20 +27 48 01.9 18.5   704 – Lincoln Laboratory ETS, New Mexico MPS 24143
2001 01 03.33182 07 21 19.02 +27 48 02.5 18.7   704 – Lincoln Laboratory ETS, New Mexico MPS 24143
2001 01 03.34353 07 21 18.19 +27 48 04.0 18.4   704 – Lincoln Laboratory ETS, New Mexico MPS 24143
2001 01 03.34409 07 21 18.06 +27 48 03.0 18.6   704 – Lincoln Laboratory ETS, New Mexico MPS 24143
2001 01 03.34669 07 21 17.96 +27 48 03.8 18.6   704 – Lincoln Laboratory ETS, New Mexico MPS 24143
2001 01 03.35879 07 21 17.10 +27 48 05.1 18.5   704 – Lincoln Laboratory ETS, New Mexico MPS 24143
2001 01 03.35934 07 21 16.98 +27 48 04.5 18.6   704 – Lincoln Laboratory ETS, New Mexico MPS 24143
2001 01 03.36144 07 21 16.81 +27 48 05.2 18.9   704 – Lincoln Laboratory ETS, New Mexico MPS 24143
2001 01 04.30415 07 20 10.45 +27 49 33.4 18.2   704 – Lincoln Laboratory ETS, New Mexico MPS 24143
2001 01 04.31927 07 20 09.29 +27 49 34.8 18.8   704 – Lincoln Laboratory ETS, New Mexico MPS 24143
2001 01 04.33438 07 20 08.16 +27 49 36.2 18.7   704 – Lincoln Laboratory ETS, New Mexico MPS 24143
2001 01 04.34949 07 20 07.13 +27 49 37.9 18.7   704 – Lincoln Laboratory ETS, New Mexico MPS 24143
2001 01 04.36461 07 20 06.03 +27 49 39.2 18.6   704 – Lincoln Laboratory ETS, New Mexico MPS 24143
2001 01 06.29475 07 17 48.50 +27 52 22.1 18.5   704 – Lincoln Laboratory ETS, New Mexico MPS 24828
2001 01 06.30987 07 17 47.42 +27 52 23.2 18.3   704 – Lincoln Laboratory ETS, New Mexico MPS 24828
2001 01 06.32497 07 17 46.31 +27 52 24.6 18.1   704 – Lincoln Laboratory ETS, New Mexico MPS 24828
2001 01 19.25701 07 02 37.29 +27 58 49.2 18.5   704 – Lincoln Laboratory ETS, New Mexico MPS 24828
2001 01 19.27225 07 02 36.22 +27 58 48.4 18.4   704 – Lincoln Laboratory ETS, New Mexico MPS 24828
2001 01 19.28749 07 02 35.19 +27 58 48.6 18.5   704 – Lincoln Laboratory ETS, New Mexico MPS 24828
2001 01 19.30324 07 02 34.08 +27 58 48.2 18.5   704 – Lincoln Laboratory ETS, New Mexico MPS 24828
2001 01 19.31859 07 02 33.01 +27 58 47.9 18.7   704 – Lincoln Laboratory ETS, New Mexico MPS 24828
2002 06 04.40964 19 02 53.52 -28 11 09.9 19.6   644 – Palomar Mountain/NEAT MPS 58664
2002 06 04.42022 19 02 53.02 -28 11 11.5 19.5   644 – Palomar Mountain/NEAT MPS 58664
2002 06 04.43060 19 02 52.57 -28 11 12.5 19.4   644 – Palomar Mountain/NEAT MPS 58664
2003 09 27.30452 02 31 14.04 +18 23 11.3 19.0   704 – Lincoln Laboratory ETS, New Mexico MPS 85991
2003 09 27.31728 02 31 13.62 +18 23 11.4 19.6   704 – Lincoln Laboratory ETS, New Mexico MPS 85991
2003 09 27.33008 02 31 13.30 +18 23 09.8 20.1   704 – Lincoln Laboratory ETS, New Mexico MPS 85991
2003 09 27.34343 02 31 12.80 +18 23 11.5 19.3   704 – Lincoln Laboratory ETS, New Mexico MPS 85991
2003 09 27.35623 02 31 12.33 +18 23 10.2 19.6   704 – Lincoln Laboratory ETS, New Mexico MPS 85991
2003 10 15.38468 02 17 28.48 +17 53 47.4 18.8 R 699 – Lowell Observatory-LONEOS MPS 87562
2003 10 15.40208 02 17 27.50 +17 53 46.1   699 – Lowell Observatory-LONEOS MPS 87562
2003 10 15.41946 02 17 26.47 +17 53 42.2   699 – Lowell Observatory-LONEOS MPS 87562
